Klawock, AK

5:53 PM AKDT on April 28, 2017 (GMT -0800)
Klawock

Weather History for PAKW - February, 2012

Change the Weather History Date:

Wednesday, February 22, 2012

  Actual Average Record
Temperature  
Mean Temperature 36 °F -  
Max Temperature 41 °F 40 °F 48 °F (2015)
Min Temperature 30 °F 30 °F 18 °F (2011)
Degree Days  
Heating Degree Days 30    
Moisture  
Dew Point 33 °F    
Average Humidity 92    
Maximum Humidity 100    
Minimum Humidity 70    
Precipitation  
Precipitation 0.19 in - - ()
Sea Level Pressure  
Sea Level Pressure 29.95 in    
Wind  
Wind Speed 3 mph (SW)    
Max Wind Speed 14 mph    
Max Gust Speed 23 mph    
Visibility 9 miles    
Events Rain , Snow    
Averages and records for this station are not official NWS values.
T = Trace of Precipitation, MM = Missing Value Source: NWS Daily Summary

Daily Weather History Graph

Daily Weather History Graph

Search for Another Location

Airport or City:

Trip Planner

Search our weather history database for the weather conditions in past years. The results will help you decide how hot, cold, wet, or windy it might be!

Date:

Astronomy

Feb. 22, 2012 Rise Set
Actual Time 7:00 AM AKST 5:11 PM AKST
Civil Twilight 6:23 AM AKST 5:49 PM AKST
Nautical Twilight 5:40 AM AKST 6:32 PM AKST
Astronomical Twilight 4:58 AM AKST 7:14 PM AKST
Moon 6:44 AM AKST (2/22) 6:49 PM AKST (2/22)
Length of Visible Light 11h 26m
Length of Day
10h 10m
New Moon, 1% of the Moon is Illuminated
Feb 22
New Moon
Feb 29
First Quarter
Mar 8
Full
Mar 14
Last Quarter
Mar 22
New

Hourly Weather History & Observations

Time (AKST) Temp. Windchill Dew Point Humidity Pressure Visibility Wind Dir Wind Speed Gust Speed Precip Events Conditions
12:51 AM 35.6 °F 32.8 °F 33.8 °F 93% 29.49 in 8.0 mi NE 3.5 mph - 0.10 in Rain Light Rain
12:53 AM 35.1 °F 32.2 °F 34.0 °F 96% 29.50 in 7.0 mi NNE 3.5 mph - 0.11 in Rain Light Rain
1:48 AM 33.8 °F 30.8 °F 33.8 °F 100% 29.52 in 10.0 mi NE 3.5 mph - 0.01 in Rain Light Rain
1:53 AM 34.0 °F - 33.1 °F 96% 29.52 in 10.0 mi Calm Calm - 0.02 in Rain Light Rain
2:18 AM 33.8 °F - 33.8 °F 100% 29.53 in 10.0 mi Calm Calm - 0.01 in Rain Light Rain
3:53 AM 33.1 °F - 33.1 °F 100% 29.60 in 10.0 mi Calm Calm - 0.01 in   Overcast
4:10 AM 30.2 °F - 30.2 °F 100% 29.61 in 10.0 mi Calm Calm - N/A   Mostly Cloudy
4:48 AM 33.8 °F - 33.8 °F 100% 29.65 in 10.0 mi Calm Calm - 0.00 in   Overcast
4:53 AM 33.1 °F - 33.1 °F 100% 29.66 in 10.0 mi Calm Calm - 0.00 in   Overcast
5:38 AM 33.8 °F 30.8 °F 33.8 °F 100% 29.70 in 10.0 mi South 3.5 mph - N/A   Overcast
5:53 AM 34.0 °F - 34.0 °F 100% 29.71 in 10.0 mi Calm Calm - 0.00 in   Overcast
6:00 AM 33.8 °F 30.8 °F 33.8 °F 100% 29.72 in 10.0 mi South 3.5 mph - N/A   Overcast
6:53 AM 34.0 °F - 34.0 °F 100% 29.76 in 5.0 mi Calm Calm - 0.01 in Rain Rain
7:02 AM 33.8 °F 30.8 °F 33.8 °F 100% 29.77 in 4.0 mi South 3.5 mph - 0.01 in Rain Light Rain
7:15 AM 35.6 °F 32.8 °F 35.6 °F 100% 29.78 in 10.0 mi South 3.5 mph - 0.02 in Rain Light Rain
7:24 AM 35.6 °F - 35.6 °F 100% 29.79 in 10.0 mi Calm Calm - 0.02 in Rain Light Rain
7:31 AM 35.6 °F - 35.6 °F 100% 29.80 in 10.0 mi Calm Calm - 0.02 in   Overcast
7:53 AM 37.0 °F 34.5 °F 35.1 °F 93% 29.82 in 10.0 mi NNW 3.5 mph - 0.02 in   Overcast
8:53 AM 37.9 °F - 36.0 °F 93% 29.88 in 10.0 mi Calm Calm - N/A   Mostly Cloudy
9:53 AM 37.9 °F - 36.0 °F 93% 29.93 in 10.0 mi Calm Calm - N/A   Overcast
10:15 AM 37.4 °F 29.8 °F 35.6 °F 93% 29.94 in 8.0 mi West 11.5 mph 19.6 mph 0.00 in Rain Light Rain
10:28 AM 37.4 °F 34.9 °F 33.8 °F 87% 29.95 in 9.0 mi Variable 3.5 mph 16.1 mph 0.00 in Rain Light Rain
10:53 AM 39.0 °F 36.8 °F 34.0 °F 82% 29.97 in 10.0 mi Variable 3.5 mph - 0.00 in   Mostly Cloudy
11:53 AM 39.9 °F 33.9 °F 34.0 °F 79% 30.02 in 10.0 mi West 9.2 mph - 0.00 in   Mostly Cloudy
12:51 PM 41.0 °F 33.9 °F 35.6 °F 81% 30.05 in 10.0 mi WSW 12.7 mph 21.9 mph N/A   Overcast
12:53 PM 41.0 °F 35.8 °F 35.1 °F 79% 30.05 in 10.0 mi WSW 8.1 mph 21.9 mph N/A   Overcast
1:53 PM 37.9 °F 32.1 °F 34.0 °F 86% 30.09 in 8.0 mi SW 8.1 mph 17.3 mph 0.00 in Rain Light Rain
2:53 PM 39.0 °F 36.8 °F 30.9 °F 73% 30.12 in 10.0 mi Variable 3.5 mph - 0.00 in   Mostly Cloudy
3:53 PM 39.0 °F 32.8 °F 32.0 °F 76% 30.14 in 10.0 mi West 9.2 mph - N/A   Mostly Cloudy
4:53 PM 39.0 °F 34.8 °F 30.0 °F 70% 30.17 in 10.0 mi Variable 5.8 mph - N/A   Overcast
5:53 PM 37.9 °F 35.5 °F 30.0 °F 73% 30.18 in 10.0 mi West 3.5 mph - 0.00 in   Overcast
6:53 PM 37.0 °F 28.5 °F 33.1 °F 86% 30.20 in 10.0 mi West 13.8 mph 23.0 mph N/A   Overcast
7:04 PM 35.6 °F 30.7 °F 33.8 °F 93% 30.21 in 7.0 mi West 5.8 mph - 0.00 in Rain Light Rain
7:19 PM 35.6 °F 31.7 °F 33.8 °F 93% 30.21 in 10.0 mi SW 4.6 mph - 0.01 in   Overcast
7:48 PM 35.6 °F - 33.8 °F 93% 30.21 in 10.0 mi Calm Calm - 0.01 in   Overcast
7:53 PM 35.1 °F 32.2 °F 34.0 °F 96% 30.21 in 10.0 mi South 3.5 mph - 0.01 in   Overcast
8:53 PM 35.1 °F - 33.1 °F 92% 30.22 in 10.0 mi Calm Calm - 0.01 in Rain Light Rain
9:22 PM 33.8 °F 29.6 °F 32.0 °F 93% 30.22 in 10.0 mi South 4.6 mph - N/A   Mostly Cloudy
9:43 PM 33.8 °F - 33.8 °F 100% 30.23 in 7.0 mi Calm Calm - 0.00 in Rain Rain
9:53 PM 33.1 °F 30.0 °F 32.0 °F 96% 30.23 in 10.0 mi SSW 3.5 mph - 0.00 in   Mostly Cloudy
10:23 PM 33.8 °F - 32.0 °F 93% 30.24 in 9.0 mi Calm Calm - 0.00 in   Scattered Clouds
10:53 PM 32.0 °F 28.7 °F 30.9 °F 96% 30.26 in 10.0 mi South 3.5 mph - 0.00 in   Mostly Cloudy
11:09 PM 33.8 °F - 32.0 °F 93% 30.26 in 10.0 mi Calm Calm - 0.00 in Snow Light Snow
11:17 PM 33.8 °F - 32.0 °F 93% 30.26 in 9.0 mi Calm Calm - 0.00 in   Overcast
11:26 PM 33.8 °F 30.8 °F 32.0 °F 93% 30.26 in 8.0 mi SSE 3.5 mph - 0.00 in Rain Light Rain
11:53 PM 33.1 °F 30.0 °F 32.0 °F 96% 30.27 in 10.0 mi Variable 3.5 mph - 0.00 in   Overcast